Regional Weather Roundup
Issued by NWS

Home | Current Version | Previous Version | Graphics & Text | Print | Product List | Glossary Off
Versions: 1 2 3 4 5 6 7 8 9 10 11 12 13 14 15 16 17 18 19 20 21 22 23 24 25 26 27 28 29 30 31 32 33 34 35 36 37 38 39 40 41 42 43 44 45 46 47 48 49 50

000
ASUS43 KMPX 231601
RWRMN
WEATHER ROUNDUP FOR MINNESOTA
NATIONAL WEATHER SERVICE TWIN CITIES/CHANHASSEN MN
1100 AM CDT MON OCT 23 2017


NOTE: "FAIR" INDICATES FEW OR NO CLOUDS BELOW 12,000 FEET WITH NO
SIGNIFICANT WEATHER AND/OR OBSTRUCTIONS TO VISIBILITY. N/A MEANS
CURRENT SKY AND/OR WEATHER CONDITIONS ARE NOT AVAILABLE.

MNZ060>063-068>070-231700-
   Twin Cities Metro

CITY           SKY/WX    TMP DP  RH WIND       PRES   REMARKS
TWIN CITIES    PTSUNNY   57  42  57 NW9       29.77R
ST PAUL        MOSUNNY   56  42  59 W10       29.77S
CRYSTAL        MOSUNNY   57  38  48 W9        29.75S
BLAINE         PTSUNNY   57  43  58 W15       29.75S
LAKEVILLE      CLOUDY    54  43  66 W9        29.79R
EDEN PRAIRIE   CLOUDY    58  41  53 W12G20    29.77R
SOUTH ST PAUL  MOSUNNY   57  40  54 W8        29.77S
LAKE ELMO      FAIR      55  43  62 W10G20    29.77S
$$
MNZ001>005-007-008-013>017-022>024-027-028-231700-
   Northwest Minnesota

CITY           SKY/WX    TMP DP  RH WIND       PRES   REMARKS
BEMIDJI        CLOUDY    45  39  81 NW21G28   29.75R
HALLOCK        CLOUDY    45  34  65 NW23G32   29.88R
ROSEAU         CLOUDY    45  39  81 NW16      29.79R
WARROAD        PTSUNNY   45  37  76 NW21G31   29.77R
THIEF RVR FALL CLOUDY    45  39  81 NW20G33   29.84R
CROOKSTON      CLOUDY    45  37  76 N24G32    29.88R
FOSSTON        LGT RAIN  39  37  93 NW23G32   29.83R
DETROIT LAKES  LGT RAIN  43  41  93 NW20G30   29.83R
MOORHEAD       CLOUDY    45  37  76 N18G25    29.89R
PARK RAPIDS    LGT RAIN  46  40  79 NW21G26   29.77R
MAHNOMEN       DRIZZLE   44  39  83 NW20G26   29.83R
$$
MNZ006-009>011-018-025>026-231700-
   North Central Minnesota

CITY           SKY/WX    TMP DP  RH WIND       PRES   REMARKS
BAUDETTE       LGT RAIN  47  42  83 NW22G37   29.71R
FLAG ISLAND    CLOUDY    46  37  71 NW28G33   29.74R
INTL FALLS     CLOUDY    51  47  86 W8        29.65R
WASKISH        CLOUDY    48  43  81 NW14      29.72R
BIG FORK       MOSUNNY   52  43  71 SW6       29.68S
LONGVILLE      MOSUNNY   52  39  62 W10G20    29.72S
GRAND RAPIDS   SUNNY     53  41  63 W16       29.70S
CRANE LAKE     SUNNY     52  46  82 W7        29.65F
ORR            CLOUDY    54  43  66 W10G17    29.63S
COOK           SUNNY     55  43  62 W15       29.65F
WALKER         CLOUDY    47  39  75 W15       29.74R
$$
MNZ012-019>021-037-231700-
   Northeast Minnesota

CITY           SKY/WX    TMP DP  RH WIND       PRES   REMARKS
DULUTH         MOSUNNY   57  41  55 W10       29.68R
ELY            MOSUNNY   52  39  62 S7        29.65S
HIBBING        SUNNY     54  40  59 W9        29.66F
EVELETH        SUNNY     58  35  42 W9        29.66S
DULUTH HARBOR  SUNNY     57  43  58 SW12G17   29.70R
TWO HARBORS    SUNNY     61  45  55 S7        29.66S
SILVER BAY     SUNNY     57  39  51 S7        29.66S
G MARAIS ARPRT CLOUDY    48  39  71 CALM      29.69S
$$
MNZ029>031-032-039>041-046>048-054>057-064-231700-
   West Central Minnesota

CITY           SKY/WX    TMP DP  RH WIND       PRES   REMARKS
FERGUS FALLS   CLOUDY    45  39  81 NW17G23   29.86R
WHEATON        CLOUDY    48  37  66 W22G30    29.90R
MORRIS         CLOUDY    48  37  66 NW23G32   29.86R
ALEXANDRIA     CLOUDY    47  38  71 NW21G31   29.83R
ELBOW LAKE     CLOUDY    46  39  78 W28G33    29.86R
WADENA         CLOUDY    45  37  76 W14G22    29.79S
GLENWOOD       PTSUNNY   46  37  71 W25G36    29.84R
APPLETON       PTSUNNY   52  36  54 NW25G38   29.87R
BENSON         PTSUNNY   52  36  54 NW23G33   29.87R
ORTONVILLE     CLOUDY    48  37  66 NW23G33   29.90R
MADISON        PTSUNNY   55  37  50 NW26G37   29.89R
WILLMAR        FAIR      54  39  58 NW22G31   29.84R
$$
MNZ033>034-036-042>043-049>051-058-059-231700-
   Central Minnesota

CITY           SKY/WX    TMP DP  RH WIND       PRES   REMARKS
ST CLOUD       SUNNY     56  41  57 W18       29.76R
SAUK CENTRE    PTSUNNY   50  37  60 W21G29    29.80R
PAYNESVILLE    MOSUNNY   53  38  55 NW24G36   29.80R
AITKIN         SUNNY     54  39  58 W9        29.70R
PINE RIVER     MOSUNNY   46  37  71 NW13G23   29.78R
BRAINERD       PTSUNNY   52  38  58 NW13G26   29.75R
STAPLES        CLOUDY    46  37  71 W17G24    29.78R
LONG PRAIRIE   PTSUNNY   46  36  66 W21       29.80R
LITTLE FALLS   SUNNY     52  32  46 W18G25    29.77R
LITCHFIELD     SUNNY     55  41  58 W24G30    29.79S
BUFFALO        MOSUNNY   56  40  56 W18G24    29.78R
MAPLE LAKE     MOSUNNY   56  42  59 W18       29.77S
HUTCHINSON     CLOUDY    56  41  56 W16G25    29.80S
$$
MNZ037-044-045-052-053-231700-
   East Central Minnesota

CITY           SKY/WX    TMP DP  RH WIND       PRES   REMARKS
PRINCETON      SUNNY     57  41  54 W16G23    29.74S
MORA           SUNNY     55  41  58 NW14      29.72F
CAMBRIDGE      SUNNY     61  43  51 W9G18     29.73S
RUSH CITY      SUNNY     58  43  56 W7        29.73S
MOOSE LAKE     SUNNY     57  41  54 W13G21    29.68R
HINCKLEY       FAIR      57  43  58 W8        29.71S
CLOQUET        MOSUNNY   55  39  54 W10       29.68S
MCGREGOR       SUNNY     54  41  62 W15       29.71R
$$
MNZ071>073-080-081-089-090-097-098-231700-
   Southwest Minnesota

CITY           SKY/WX    TMP DP  RH WIND       PRES   REMARKS
MONTEVIDEO     MOSUNNY   55  36  47 N25G35    29.87R
GRANITE FALLS  SUNNY     56  37  49 NW25G39   29.89R
CANBY          PTSUNNY   54  38  55 NW24G37   29.91S
MARSHALL       MOSUNNY   55  38  52 NW25G35   29.88R
REDWOOD FALLS  SUNNY     57  35  43 NW26G40   29.83F
OLIVIA         SUNNY     54  37  54 NW29G35   29.82R
PIPESTONE      MOSUNNY   52  37  58 NW18G38   29.92S
WORTHINGTON    SUNNY     55  37  50 NW24      29.92R
JACKSON        SUNNY     54  36  50 NW18G28   29.89R
TRACY          SUNNY     56  38  51 NW23G35   29.89S
SLAYTON        SUNNY     53  37  53 W28G39    29.91R
$$
MNZ065>067-074>077-082>085-091>093-231700-
   South Central Minnesota

CITY           SKY/WX    TMP DP  RH WIND       PRES   REMARKS
NEW ULM          N/A     55  37  50 W24       29.83S
ST JAMES       SUNNY     57  37  47 W21G32    29.86S
FAIRMONT       MOSUNNY   56  38  50 NW24G32   29.86S
GLENCOE        MOSUNNY   57  40  53 W13G24    29.79S
FARIBAULT      CLOUDY    54  43  66 W8        29.81R
OWATONNA       CLOUDY    54  43  66 W9        29.82R
WASECA         CLOUDY    54  41  62 W14G23    29.84R
$$
MNZ078>079-086>088-094>096-231700-
   Southeast Minnesota

CITY           SKY/WX    TMP DP  RH WIND       PRES   REMARKS
ROCHESTER      CLOUDY    50  41  71 W6        29.82R
RED WING       MOSUNNY   54  37  54 CALM      29.78S
STANTON        CLOUDY    55  42  62 W12       29.78S
DODGE CENTER   CLOUDY    52  39  62 W12       29.81R
WINONA         CLOUDY    54  41  62 W3        29.79F
AUSTIN         CLOUDY    52  41  66 NW8       29.83R
PRESTON        CLOUDY    49  39  69 W13G18    29.81S
$$
ABBREVIATIONS USED IN REMARKS
   TC - TEMPERATURES IN CELSIUS
  WCI - WIND CHILL INDEX
   HX - HEAT INDEX
  VSB - VISIBILITY
$$




USA.gov is the U.S. government's official web portal to all federal, state and local government web resources and services.